OneWeb SL0148

operational
NORAD ID: 48059 Int'l Des: 2021-025 Owner: ONEWEBN Country: UK Constellation: oneweb
LEOCIRCULARPOLARONEWEB_TYPE

About OneWeb SL0148

Description loading...

Live Position

Loading 3D Globe...

Upcoming Passes

Altitude History

Altitude vs Time

uPlot chart will show altitude changes over time

Two-Line Element Set

1 48059U 21025T 25304.13169385 -.00000225 00000-0 -65000-3 0 9991
2 48059 87.9027 5.7609 0001644 80.2093 279.9222 13.13470468223541
Epoch: Oct 31, 2025 • Age: 15 hours

Current Status

Altitude 1211.9 km
Velocity 7.25 km/s
Sub-Earth Point 12.74°N, 134.68°W
Launch Date Mar 25, 2021
Age 4.6 years
Type internet

Technical Details

Classification Payload
Mass 148.00 kg
Dry Mass 140.00 kg
Total Mass 148.00 kg
Length 1.30 m
Diameter 1.00 m
Span 5.00 m
Shape Trapezoid+2 pan
Manufacturer ONEWUS
Bus Type ARROW
Phase Status In Orbit
Owner/State ONEWEBN/UK

Large Constellations

Loading constellations...